< < Back
Terminal Aerodrome Forecast


Current Version              Previous Versions:   1  2  3  4  5  6  7  8  9  

Terminal Aerodrome Forecast

269
FTUS42 KCAE 032158 AAB
TAFCAE
TAF AMD
KCAE 032158Z 0322/0418 25012KT P6SM VCSH SCT050 BKN110
     FM040400 26006KT P6SM SCT040 BKN080
     FM040900 29005KT P6SM SCT040 BKN100=

Latest METAR

744
SAUS80 KWBC 040000
MTRCAE
METAR KCAE 032356Z 22006KT 10SM SCT070 SCT150 23/17 A2975 RMK AO2 SLP073
T02330172 10294 20233 53003


USA.gov is the U.S. government's official web portal to all federal, state and local government web resources and services.